DW1028 Weather Reports


time (UTC)temp
C
wind
direction
speed
KPH
gust
KPH
rain 1hr
cm
rain 24hr
cm
rain mn
cm
humidity
%
barometer
mb
20260505224552 25 57 16.1 22.5 0.00 0.00 0.00 33 1012.1
20260505223107 25 45 6.4 22.5 0.00 0.00 0.00 34 1012.2
20260505221549 25 321 8.0 16.1 0.00 0.00 0.00 35 1012.2
20260505220051 25 46 6.4 14.5 0.00 0.00 0.00 36 1012.5
20260505214555 25 59 9.7 22.5 0.00 0.00 0.00 39 1012.5
20260505213056 24 28 11.3 22.5 0.00 0.00 0.00 37 1012.5
20260505211551 24 315 8.0 20.9 0.00 0.00 0.00 38 1012.6
20260505210050 24 37 8.0 20.9 0.00 0.00 0.00 37 1012.5
20260505204558 24 18 8.0 22.5 0.00 0.00 0.00 37 1012.7
20260505203057 23 344 8.0 19.3 0.00 0.00 0.00 41 1012.6
20260505201553 23 335 6.4 16.1 0.00 0.00 0.00 42 1012.7
20260505200054 23 323 6.4 16.1 0.00 0.00 0.00 43 1012.7
20260505194603 23 82 4.8 16.1 0.00 0.00 0.00 43 1012.8
20260505193049 22 74 3.2 8.0 0.00 0.00 0.00 44 1012.7
20260505191550 22 227 1.6 12.9 0.00 0.00 0.00 46 1012.8
20260505190050 21 338 6.4 16.1 0.00 0.00 0.00 49 1012.9
20260505184555 21 277 6.4 14.5 0.00 0.00 0.00 49 1013.1
20260505183058 20 297 9.7 16.1 0.00 0.00 0.00 53 1013.1
20260505181549 20 346 8.0 17.7 0.00 0.00 0.00 52 1013.1
20260505180050 20 297 6.4 16.1 0.00 0.00 0.00 56 1012.9
20260505174551 19 297 6.4 14.5 0.00 0.00 0.00 55 1012.9
20260505173054 19 263 8.0 20.9 0.00 0.00 0.00 56 1012.9
20260505171546 18 284 6.4 19.3 0.00 0.00 0.00 57 1012.8
20260505170047 18 191 6.4 16.1 0.00 0.00 0.00 60 1012.6
20260505164601 17 219 8.0 17.7 0.00 0.00 0.00 61 1012.7
20260505163100 17 254 6.4 17.7 0.00 0.00 0.00 62 1012.7
20260505161555 17 220 9.7 16.1 0.00 0.00 0.00 64 1012.8
20260505153108 16 190 6.4 11.3 0.00 0.00 0.00 67 1012.4
20260505151600 16 240 6.4 11.3 0.00 0.00 0.00 67 1012.3
20260505124552 13 253 1.6 9.7 0.00 0.00 0.00 73 1011.1
20260505123050 13 232 6.4 12.9 0.00 0.00 0.00 72 1010.9
20260505121550 13 252 4.8 8.0 0.00 0.00 0.00 72 1011.0
20260505120054 14 252 4.8 11.3 0.00 0.00 0.00 72 1010.8
20260505114552 14 221 8.0 14.5 0.00 0.00 0.00 71 1010.7
20260505113053 15 219 6.4 9.7 0.00 0.00 0.00 70 1010.8
20260505111556 15 196 6.4 12.9 0.00 0.00 0.00 70 1010.7
20260505101550 15 213 4.8 12.9 0.00 0.00 0.00 67 1010.3
20260505100052 15 213 9.7 12.9 0.00 0.00 0.00 67 1010.1
20260505094551 15 208 9.7 12.9 0.00 0.00 0.00 67 1010.2
20260505093050 15 194 4.8 12.9 0.00 0.00 0.00 67 1010.2
20260505091558 15 196 8.0 14.5 0.00 0.00 0.00 66 1010.0
20260505090059 16 232 11.3 16.1 0.00 0.00 0.00 67 1009.9
20260505084551 15 248 6.4 11.3 0.00 0.00 0.00 68 1010.1
20260505083053 16 232 4.8 20.9 0.00 0.00 0.00 66 1010.1
20260505081601 16 209 14.5 19.3 0.00 0.00 0.00 65 1010.0
20260505080056 16 257 11.3 27.4 0.00 0.00 0.00 64 1010.0
20260505074607 16 247 11.3 17.7 0.00 0.00 0.00 66 1009.9
20260505073055 16 242 11.3 20.9 0.00 0.00 0.00 64 1009.9
20260505071549 16 224 6.4 11.3 0.00 0.00 0.00 63 1009.8
20260505070052 17 250 8.0 14.5 0.00 0.00 0.00 62 1009.7
20260505064556 17 237 11.3 22.5 0.00 0.00 0.00 62 1009.6
20260505063059 17 259 14.5 20.9 0.00 0.00 0.00 61 1009.6
20260505061617 17 250 11.3 22.5 0.00 0.00 0.00 60 1009.5
20260505060055 17 271 11.3 17.7 0.00 0.00 0.00 58 1009.3
20260505054603 18 263 8.0 19.3 0.00 0.00 0.00 56 1009.5
20260505053052 18 151 11.3 25.7 0.00 0.00 0.00 55 1009.4
20260505051549 18 211 9.7 29.0 0.00 0.00 0.00 54 1009.3
20260505041553 20 258 19.3 29.0 0.00 0.00 0.00 52 1008.7
20260505040058 20 284 20.9 32.2 0.00 0.00 0.00 50 1008.4
20260505034550 20 309 14.5 32.2 0.00 0.00 0.00 50 1008.6
20260505033053 20 293 11.3 19.3 0.00 0.00 0.00 49 1008.3
20260505031549 20 281 6.4 16.1 0.00 0.00 0.00 49 1008.3
20260505030052 21 294 9.7 19.3 0.00 0.00 0.00 47 1008.3
20260505024605 22 286 14.5 22.5 0.00 0.00 0.00 44 1008.2
20260505023051 22 259 20.9 30.6 0.00 0.00 0.00 41 1008.1
20260505021602 22 278 14.5 30.6 0.00 0.00 0.00 43 1008.2
20260505020049 23 300 14.5 24.1 0.00 0.00 0.00 41 1008.2
20260505014551 23 304 19.3 30.6 0.00 0.00 0.00 41 1008.1
20260505013050 24 295 17.7 25.7 0.00 0.00 0.00 38 1008.0
20260505011554 25 296 17.7 27.4 0.00 0.00 0.00 36 1007.9
20260505010049 25 291 17.7 27.4 0.00 0.00 0.00 35 1007.9
20260505004549 25 323 16.1 29.0 0.00 0.00 0.00 32 1008.0
20260505003051 26 303 14.5 25.7 0.00 0.00 0.00 33 1008.1
20260505001546 26 344 6.4 16.1 0.00 0.00 0.00 29 1008.0
20260505000046 26 301 4.8 19.3 0.00 0.00 0.00 27 1008.2
20260504234548 26 306 11.3 17.7 0.00 0.00 0.00 25 1008.3
20260504233058 26 255 9.7 17.7 0.00 0.00 0.00 25 1008.3
20260504231550 26 270 9.7 19.3 0.00 0.00 0.00 26 1008.5
20260504230049 26 51 9.7 20.9 0.00 0.00 0.00 25 1008.4